COSMOS 1275 DEB

Satellite information

Favourite Embed

Satellite Type and Status

DEBRISIN ORBIT

Key statistics

Satellite COSMOS 1275 DEB at a glance.

Uptime

16159

Days in orbit

Revolutions

≈ 14.3

Per day

Orbit

LEO

Low Earth Orbit

Inclination

83.0

Latest

Satellite identification and parameters

Extended collection of information and parameters for COSMOS 1275 DEB.

Object identification

Identified? True

Debris? True

Object name: COSMOS 1275 DEB

International designator: 1981-053N

Object number (NORAD): 12658

Object ID (CCSDS): 12658

Country: COMMONWEALTH OF INDEPENDENT STATES (CIS)

Current information (Y/N): Y

RCS size: SMALL

Orbital parameters

Period: 100.884 minutes

Inclination: 82.9727 deg

SMA: 7178.627 km

Apoapsis: 826.795 km

Periapsis: 774.189 km

RAAN: 16.6712 deg

Eccentricy: 0.0036641

Argument of periapsis: 243.3805 deg

Mean anomaly: 239.4631 deg

Mean motion: 14.27383478 rev/day

Mean motion (dot): 0.00005063 rev/day2

B* drag term: 0.0020447642 1/REarth

Two-line elements (TLE)

Creation date: Aug. 31, 2025, 2:26 a.m.

Reference frame: TEME

Reference center: EARTH

Epoch: Aug. 30, 2025, 8:08 p.m. UTC

TLE line 0: 0 COSMOS 1275 DEB

TLE line 1: 1 12658U 81053N 25242.83934098 .00005063 00000-0 20448-2 0 9992

TLE line 2: 2 12658 82.9727 16.6712 0036641 243.3805 239.4631 14.27383478248770

Live tracking on map

Real-time ground track for satellite COSMOS 1275 DEB.

In-orbit conjunctions

A list of the most updated potential collisions computed for object COSMOS 1275 DEB.

Target Orbit TCA Probability of collision Miss distance Type
CZ-6A DEB LEO 2025-08-24 10:53:34 0.0001867301 271.0 (m) DEBRIS
FENGYUN 1C DEB SSO 2025-06-29 15:47:14 0.0004146957 56.0 (m) DEBRIS
CZ-6A DEB SSO 2025-06-23 16:29:14 0.0004285362 32.0 (m) DEBRIS
FENGYUN 1C DEB SSO 2024-11-11 05:03:55 0.0001354055 687.0 (m) DEBRIS
FENGYUN 1C DEB SSO 2024-11-09 03:16:14 0.0003559256 565.0 (m) DEBRIS

Associated space launch

Navigation satellite providing location information for the Tsiklon-B navigation system

COSMOS 1275 DEB was lifted into orbit during the mission ‘Kosmos-3M | Parus 27’, on board a Kosmos-3M space rocket.

The launch took place on June 4, 1981, 3:41 p.m. from 132/2.

For more information about the launch, click the button.

Launch to space Kosmos-3M | Parus 27
Kosmos-3M | Parus 27

Agency: N/A

Status: Launch Successful

Launch date: June 4, 1981, 3:41 p.m. UTC

Rocket: Kosmos-3M

Launch pad: 132/2

Location: Plesetsk Cosmodrome, Russian Federation

...

Latest news about this satellite

There are no fresh news available about this satellite. Check back as we update our databases every day.


Newsletter sign-up

Weekly statistics, charts and insights to help you stay on top of the space industry.